Location: Unspecified
(0.0000°N, 0.0000°E)
Time: 13:48:59
(UTC+00:00)

NTS 1 - Pass Details

Date: 11 June 2023
Orbit: 13478 x 13741 km, 124.8° (Epoch: 26 September)

Event Time Altitude Azimuth Distance (km) Brightness Sun altitude
Rises 16:56:39 0° 150° (SSE) 18,966 ? 14.5°
Reaches altitude 10° 17:08:51 10° 156° (SSE) 17,863 ? 11.7°
Maximum altitude 18:01:43 40° 213° (SSW) 15,199 ? -0.5°
Drops below altitude 10° 18:56:08 10° 275° (W) 17,725 ? -13.0°
Sets 19:09:21 0° 284° (WNW) 18,804 ? -16.0°
